Location: Chateh
(58.6667°N, 118.6000°W)
Time: 00:15:44
(UTC+00:00)

DOVE 4 - Visible Passes

Search period start: 07 December 2023 00:00
Search period end: 17 December 2023 00:00
Orbit: 582 x 785 km, 97.8° (Epoch: 06 December)

Date Brightness Start Highest point End Pass type
(mag) Time Alt. Az. Time Alt. Az. Time Alt. Az.
07 Dec ? 14:18:11 10° ENE 14:19:22 11° NE 14:20:32 10° NNE visible
08 Dec ? 14:52:56 10° E 14:55:54 17° NE 14:58:46 10° N visible
09 Dec ? 15:28:40 10° ESE 15:32:34 28° ENE 15:36:19 10° N visible
10 Dec ? 14:30:54 10° ENE 14:32:49 13° NE 14:34:43 10° NNE visible
11 Dec ? 15:06:07 10° E 15:09:24 20° NE 15:12:35 10° N visible
12 Dec ? 15:42:04 10° SE 15:46:08 33° ENE 15:50:02 10° N visible
13 Dec ? 14:43:50 10° E 14:46:17 15° NE 14:48:40 10° NNE visible
14 Dec ? 15:19:21 10° ESE 15:22:54 24° NE 15:26:20 10° N visible
15 Dec ? 14:22:12 10° NE 14:23:11 11° NE 14:24:09 10° NNE visible
16 Dec ? 14:56:52 10° E 14:59:43 17° NE 15:02:29 10° N visible
